Location: Saint-Hippolyte
(43.6394°N, 4.7559°E)
Time: 15:10:58
(UTC+00:00)

Ariane Rocket - Pass Details

Date: 24 October 2020
Orbit: 759 x 770 km, 98.7° (Epoch: 23 November)

Event Time Altitude Azimuth Distance (km) Brightness Sun altitude
Exits shadow 19:18:51 31° 1° (N) 1,340 4.3 -28.8°
Drops below altitude 10° 19:21:29 10° 352° (N) 2,323 5.7 -29.3°
Sets 19:23:49 0° 349° (N) 3,254 6.5 -29.7°
